Location: Saint-Maurice-d�Ard�che
(44.5216°N, 4.4002°E)
Time: 11:16:42
(UTC+00:00)

Resurs 1-3 - Pass Details

Date: 30 March 2020
Orbit: 630 x 632 km, 97.9° (Epoch: 05 June)

Event Time Altitude Azimuth Distance (km) Brightness Sun altitude
Exits shadow 20:05:32 32° 178° (S) 1,074 4.5 -20.7°
Maximum altitude 20:07:29 75° 257° (WSW) 658 3.7 -21.0°
Drops below altitude 10° 20:11:54 10° 344° (NNW) 2,022 6.8 -21.7°
Sets 20:14:07 0° 346° (NNW) 2,935 7.7 -22.0°
